Location: Unspecified
(0.0000°N, 0.0000°E)
Time: 01:46:19
(UTC+00:00)

Envisat - Pass Details

Date: 17 March 2018
Orbit: 764 x 766 km, 98.2° (Epoch: 17 June)

Event Time Altitude Azimuth Distance (km) Brightness Sun altitude
Exits shadow 18:58:54 15° 64° (ENE) 1,995 4.6 -12.6°
Drops below altitude 10° 19:00:47 10° 43° (NE) 2,291 5.1 -13.1°
Sets 19:04:01 0° 21° (NNE) 3,213 6.0 -13.9°
